FW3096 Weather Reports


Display with metric or nautical units.
time (UTC)temp
F
wind
direction
speed
MPH
gust
MPH
rain 1hr
in
rain 24hr
in
rain mn
in
humidity
%
barometer
mb
20260506172008 62 131 1.0 4.0 0.00 0.07 0.07 92 1009.8
20260506171508 62 136 1.0 11.0 0.01 0.07 0.07 92 1009.7
20260506170509 62 233 3.0 9.0 0.02 0.07 0.07 92 1010.0
20260506170010 62 48 4.0 9.0 0.03 0.07 0.07 92 1010.0
20260506165010 62 225 2.0 10.0 0.04 0.07 0.07 93 1010.0
20260506164009 62 271 1.0 8.0 0.05 0.07 0.07 93 1010.0
20260506163010 62 173 0.0 5.0 0.05 0.07 0.07 92 1010.2
20260506162507 62 148 1.0 5.0 0.05 0.07 0.07 92 1010.1
20260506162010 62 117 2.0 5.0 0.06 0.07 0.07 93 1010.2
20260506161508 62 157 1.0 5.0 0.05 0.06 0.06 92 1010.4
20260506161008 62 189 2.0 6.0 0.05 0.05 0.05 92 1010.5
20260506160509 62 160 2.0 9.0 0.05 0.05 0.05 91 1010.7
20260506160011 62 146 3.0 9.0 0.04 0.04 0.04 90 1010.9
20260506155508 62 317 1.0 6.0 0.04 0.04 0.04 89 1011.2
20260506154508 63 46 4.0 10.0 0.03 0.03 0.03 89 1011.3
20260506154009 63 223 1.0 4.0 0.02 0.02 0.02 89 1011.2
20260506153509 63 34 0.0 7.0 0.02 0.02 0.02 87 1011.3
20260506153009 63 215 0.0 7.0 0.02 0.02 0.02 87 1011.3
20260506152508 63 238 3.0 8.0 0.02 0.02 0.02 86 1011.3
20260506152010 63 309 2.0 9.0 0.01 0.01 0.01 85 1011.1
20260506151508 64 233 1.0 9.0 0.01 0.01 0.01 83 1011.0
20260506151008 64 241 4.0 9.0 0.00 0.00 0.00 83 1011.0
20260506150009 64 171 1.0 7.0 0.00 0.00 0.00 81 1010.9
20260506145508 65 202 3.0 8.0 0.00 0.00 0.00 80 1011.0
20260506145010 65 283 1.0 8.0 0.00 0.00 0.00 80 1011.1
20260506144009 66 187 4.0 11.0 0.00 0.00 0.00 79 1011.0
20260506143508 66 203 3.0 9.0 0.00 0.00 0.00 78 1010.9
20260506142508 66 128 2.0 8.0 0.00 0.00 0.00 77 1011.2
20260506142008 67 5 4.0 8.0 0.00 0.00 0.00 75 1011.1
20260506141509 67 218 4.0 7.0 0.00 0.00 0.00 74 1011.2
20260506141008 67 315 2.0 10.0 0.00 0.00 0.00 73 1011.1
20260506140508 67 70 3.0 12.0 0.00 0.00 0.00 73 1011.1
20260506140008 68 265 2.0 12.0 0.00 0.00 0.00 72 1011.0
20260506135507 68 278 5.0 10.0 0.00 0.00 0.00 72 1011.0
20260506135009 69 260 4.0 9.0 0.00 0.00 0.00 72 1010.9
20260506133508 67 181 4.0 10.0 0.00 0.00 0.00 75 1010.9
20260506133008 66 271 2.0 7.0 0.00 0.00 0.00 76 1011.0
20260506132506 66 130 3.0 9.0 0.00 0.00 0.00 75 1011.1
20260506132009 66 336 1.0 9.0 0.00 0.00 0.00 76 1011.1
20260506131507 66 186 3.0 12.0 0.00 0.00 0.00 76 1011.0
20260506131007 66 167 4.0 12.0 0.00 0.00 0.00 76 1011.1
20260506125010 66 227 2.0 13.0 0.00 0.00 0.00 77 1011.4
20260506124507 66 355 4.0 13.0 0.00 0.00 0.00 77 1011.4
20260506124009 66 142 4.0 8.0 0.00 0.00 0.00 77 1011.3
20260506122011 66 13 2.0 12.0 0.00 0.00 0.00 79 1011.3
20260506121008 66 168 4.0 10.0 0.00 0.00 0.00 79 1011.1
20260506120508 66 169 3.0 6.0 0.00 0.00 0.00 79 1011.1
20260506120010 65 85 3.0 8.0 0.00 0.00 0.00 81 1011.0
20260506115507 64 192 3.0 8.0 0.00 0.00 0.00 82 1011.1
20260506114508 64 81 2.0 6.0 0.00 0.00 0.00 82 1011.0
20260506114008 64 150 2.0 11.0 0.00 0.00 0.00 82 1011.0
20260506113509 64 157 4.0 11.0 0.00 0.00 0.00 82 1010.9
20260506113009 63 215 4.0 9.0 0.00 0.00 0.00 83 1011.0
20260506112507 63 165 4.0 8.0 0.00 0.00 0.00 83 1011.0
20260506112010 63 76 3.0 8.0 0.00 0.00 0.00 83 1011.1
20260506111508 63 166 2.0 9.0 0.00 0.00 0.00 83 1010.9
20260506111008 63 78 4.0 10.0 0.00 0.00 0.00 83 1011.1
20260506110510 63 136 4.0 10.0 0.00 0.00 0.00 83 1011.0
20260506110011 63 235 3.0 8.0 0.00 0.00 0.00 84 1010.9
20260506105508 63 145 2.0 5.0 0.00 0.00 0.00 84 1010.9
20260506105010 63 162 2.0 6.0 0.00 0.00 0.00 84 1011.1
20260506104507 63 181 2.0 7.0 0.00 0.00 0.00 84 1011.0
20260506104009 63 108 1.0 7.0 0.00 0.00 0.00 84 1010.9
20260506103507 63 92 1.0 7.0 0.00 0.00 0.00 84 1011.0
20260506103009 62 157 2.0 8.0 0.00 0.00 0.00 85 1011.0
20260506101010 62 171 1.0 7.0 0.00 0.00 0.00 84 1010.9
20260506100508 62 180 2.0 9.0 0.00 0.00 0.00 84 1010.9
20260506100009 63 213 3.0 9.0 0.00 0.00 0.00 84 1010.9
20260506095508 63 105 2.0 7.0 0.00 0.00 0.00 84 1010.9
20260506095008 63 158 0.0 4.0 0.00 0.00 0.00 84 1011.0
20260506094507 63 188 1.0 6.0 0.00 0.00 0.00 83 1011.1
20260506094009 63 75 0.0 4.0 0.00 0.00 0.00 83 1011.1
20260506093007 63 94 1.0 6.0 0.00 0.00 0.00 83 1011.0
20260506092509 63 301 1.0 4.0 0.00 0.00 0.00 83 1011.0
20260506092008 63 182 2.0 8.0 0.00 0.00 0.00 83 1010.9
20260506091506 63 200 4.0 9.0 0.00 0.00 0.00 83 1010.9
20260506091009 64 140 0.0 4.0 0.00 0.00 0.00 82 1011.0
20260506090506 64 213 1.0 5.0 0.00 0.00 0.00 82 1011.0
20260506090008 64 171 3.0 5.0 0.00 0.00 0.00 82 1011.0
20260506085508 64 198 2.0 5.0 0.00 0.00 0.00 82 1011.1
20260506085007 64 210 1.0 5.0 0.00 0.00 0.00 82 1011.1
20260506084507 64 87 1.0 6.0 0.00 0.00 0.00 82 1011.2
20260506084009 64 86 1.0 6.0 0.00 0.00 0.00 82 1011.0
20260506083508 64 181 2.0 6.0 0.00 0.00 0.00 82 1011.1
20260506082507 64 161 1.0 7.0 0.00 0.00 0.00 82 1011.1
20260506082010 64 167 1.0 5.0 0.00 0.00 0.00 81 1011.1
20260506081508 64 167 2.0 5.0 0.00 0.00 0.00 82 1011.3
20260506081009 64 165 3.0 5.0 0.00 0.00 0.00 82 1011.2
20260506080509 64 157 1.0 6.0 0.00 0.00 0.00 82 1011.2
20260506073508 64 144 1.0 3.0 0.00 0.00 0.00 81 1011.2
20260506073008 64 162 0.0 3.0 0.00 0.00 0.00 81 1011.3
20260506072506 64 207 1.0 3.0 0.00 0.00 0.00 81 1011.3
20260506072009 64 96 0.0 3.0 0.00 0.00 0.00 81 1011.3
20260506071008 64 157 0.0 3.0 0.00 0.00 0.00 81 1011.3
20260506070507 64 196 1.0 4.0 0.00 0.00 0.00 81 1011.3
20260506062009 65 166 0.0 5.0 0.00 0.00 0.00 78 1011.7
20260506061507 65 139 1.0 4.0 0.00 0.00 0.00 78 1011.5
20260506061008 65 138 0.0 4.0 0.00 0.00 0.00 78 1011.5
20260506060508 66 159 0.0 4.0 0.00 0.00 0.00 78 1011.5
20260506051009 66 190 1.0 5.0 0.00 0.00 0.00 76 1011.9
20260506050507 66 145 2.0 5.0 0.00 0.00 0.00 76 1012.0
20260506045009 66 118 2.0 6.0 0.00 0.00 0.00 76 1012.2
20260506044508 66 173 2.0 9.0 0.00 0.00 0.00 75 1012.2
20260506044010 66 166 4.0 9.0 0.00 0.00 0.00 75 1012.2
20260506043508 66 167 2.0 6.0 0.00 0.00 0.00 75 1012.2
20260506043009 66 103 0.0 7.0 0.00 0.00 0.00 74 1012.2
20260506042510 66 93 0.0 7.0 0.00 0.00 0.00 73 1012.2
20260506042009 66 148 0.0 4.0 0.00 0.00 0.00 73 1012.2
20260506041509 66 198 0.0 3.0 0.00 0.00 0.00 73 1012.2
20260506041011 67 178 0.0 5.0 0.00 0.00 0.00 72 1012.2
20260506040508 67 161 1.0 5.0 0.00 0.00 0.00 72 1012.1
20260506040016 67 122 1.0 4.0 0.00 0.00 0.00 71 1012.1
20260506035510 67 150 0.0 7.0 0.00 0.00 0.00 71 1012.1
20260506035010 67 170 2.0 7.0 0.00 0.00 0.00 71 1012.2
20260506034509 67 234 3.0 6.0 0.00 0.00 0.00 71 1012.2
20260506034011 67 165 3.0 9.0 0.00 0.00 0.00 71 1012.1
20260506033509 67 138 4.0 9.0 0.00 0.00 0.00 70 1012.1
20260506033009 67 121 2.0 5.0 0.00 0.00 0.00 70 1012.0
20260506032510 67 145 2.0 5.0 0.00 0.00 0.00 69 1011.9
20260506032009 68 163 2.0 6.0 0.00 0.00 0.00 69 1011.9
20260506031510 68 161 2.0 7.0 0.00 0.00 0.00 69 1011.9
20260506030509 68 57 3.0 6.0 0.00 0.00 0.00 68 1012.1
20260506025009 68 213 2.0 7.0 0.00 0.00 0.00 67 1012.0
20260506024511 69 167 2.0 5.0 0.00 0.00 0.00 66 1012.1
20260506024009 69 155 0.0 5.0 0.00 0.00 0.00 65 1012.2
20260506023508 69 175 2.0 5.0 0.00 0.00 0.00 65 1012.2
20260506023011 70 172 0.0 6.0 0.00 0.00 0.00 64 1012.2
20260506022508 70 146 2.0 6.0 0.00 0.00 0.00 63 1012.1
20260506021510 70 151 2.0 7.0 0.00 0.00 0.00 61 1012.0
20260506021009 71 149 0.0 5.0 0.00 0.00 0.00 61 1012.0
20260506020509 71 73 2.0 8.0 0.00 0.00 0.00 60 1011.9
20260506020013 71 154 2.0 7.0 0.00 0.00 0.00 60 1011.9
20260506015509 71 148 3.0 9.0 0.00 0.00 0.00 59 1011.8
20260506015009 71 153 3.0 9.0 0.00 0.00 0.00 59 1011.8
20260506014510 71 171 3.0 8.0 0.00 0.00 0.00 58 1011.9
20260506014009 72 139 2.0 7.0 0.00 0.00 0.00 58 1011.7
20260506013508 72 150 3.0 8.0 0.00 0.00 0.00 58 1011.6
20260506013012 72 162 4.0 8.0 0.00 0.00 0.00 57 1011.6
20260506012010 72 194 3.0 7.0 0.00 0.00 0.00 57 1011.5
20260506011509 72 170 3.0 7.0 0.00 0.00 0.00 56 1011.5
20260506011009 72 150 2.0 5.0 0.00 0.00 0.00 56 1011.5
20260506010508 72 191 2.0 6.0 0.00 0.00 0.00 56 1011.4
20260506010011 72 27 2.0 5.0 0.00 0.00 0.00 56 1011.4
20260506005509 72 230 2.0 5.0 0.00 0.00 0.00 55 1011.3
20260506005009 72 134 1.0 6.0 0.00 0.00 0.00 55 1011.2
20260506004508 72 143 1.0 6.0 0.00 0.00 0.00 54 1011.1
20260506004011 73 175 3.0 6.0 0.00 0.00 0.00 54 1011.2
20260506003508 73 348 1.0 7.0 0.00 0.00 0.00 53 1011.2
20260506002510 73 98 2.0 8.0 0.00 0.00 0.00 52 1011.0
20260506001011 74 197 3.0 8.0 0.00 0.00 0.00 51 1010.7
20260506000509 74 277 3.0 13.0 0.00 0.00 0.00 51 1010.7
20260505235009 74 178 2.0 7.0 0.00 0.00 0.00 51 1010.3
20260505234509 75 158 1.0 10.0 0.00 0.00 0.00 51 1010.4
20260505234011 75 109 5.0 10.0 0.00 0.00 0.00 50 1010.3
20260505233509 75 156 3.0 8.0 0.00 0.00 0.00 51 1010.4
20260505232510 76 168 4.0 9.0 0.00 0.00 0.00 50 1010.2
20260505232010 76 138 3.0 7.0 0.00 0.00 0.00 50 1010.3
20260505231508 76 207 1.0 12.0 0.00 0.00 0.00 50 1010.2
20260505231013 77 157 5.0 12.0 0.00 0.00 0.00 50 1010.2
20260505230509 77 162 4.0 10.0 0.00 0.00 0.00 49 1010.1
20260505225508 77 148 3.0 6.0 0.00 0.00 0.00 48 1010.2
20260505224509 77 154 2.0 9.0 0.00 0.00 0.00 49 1010.0
20260505224009 78 109 4.0 9.0 0.00 0.00 0.00 49 1010.1
20260505223508 78 138 2.0 5.0 0.00 0.00 0.00 49 1010.0
20260505223010 78 207 2.0 6.0 0.00 0.00 0.00 48 1010.2
20260505222009 79 141 2.0 12.0 0.00 0.00 0.00 45 1010.3
20260505221509 79 255 4.0 12.0 0.00 0.00 0.00 43 1010.4
20260505221009 79 248 4.0 12.0 0.00 0.00 0.00 42 1010.4
20260505220508 80 202 3.0 12.0 0.00 0.00 0.00 41 1010.4
20260505220010 80 235 5.0 15.0 0.00 0.00 0.00 40 1010.2
20260505214508 81 155 6.0 12.0 0.00 0.00 0.00 39 1010.0
20260505214011 81 218 3.0 12.0 0.00 0.00 0.00 39 1010.1
20260505213509 81 114 5.0 14.0 0.00 0.00 0.00 40 1010.2
20260505213009 81 127 6.0 15.0 0.00 0.00 0.00 38 1010.3
20260505212009 81 159 5.0 10.0 0.00 0.00 0.00 39 1010.0
20260505211508 81 273 2.0 10.0 0.00 0.00 0.00 40 1010.1
20260505211011 81 229 3.0 13.0 0.00 0.00 0.00 39 1010.1
20260505210508 81 225 3.0 13.0 0.00 0.00 0.00 39 1010.1
20260505210012 81 198 5.0 14.0 0.00 0.00 0.00 38 1010.1
20260505205509 81 248 3.0 13.0 0.00 0.00 0.00 38 1010.0
20260505205008 81 242 5.0 15.0 0.00 0.00 0.00 38 1010.0
20260505204507 81 184 7.0 15.0 0.00 0.00 0.00 38 1010.0
20260505204009 81 18 4.0 15.0 0.00 0.00 0.00 38 1010.0
20260505203508 82 101 4.0 10.0 0.00 0.00 0.00 37 1010.1
20260505203008 81 310 4.0 14.0 0.00 0.00 0.00 38 1010.0
20260505202507 81 218 5.0 14.0 0.00 0.00 0.00 36 1010.0
20260505201507 82 286 2.0 13.0 0.00 0.00 0.00 36 1009.9
20260505201009 82 340 5.0 16.0 0.00 0.00 0.00 37 1009.9
20260505200508 82 137 4.0 12.0 0.00 0.00 0.00 35 1010.0
20260505200010 82 142 5.0 13.0 0.00 0.00 0.00 35 1009.9
20260505195507 82 115 5.0 13.0 0.00 0.00 0.00 35 1010.1
20260505195018 82 292 5.0 13.0 0.00 0.00 0.00 35 1010.1
20260505194508 83 81 2.0 13.0 0.00 0.00 0.00 37 1010.2
20260505194010 82 51 3.0 16.0 0.00 0.00 0.00 35 1010.1
20260505193507 83 232 4.0 16.0 0.00 0.00 0.00 35 1010.1
20260505192509 83 205 3.0 16.0 0.00 0.00 0.00 43 1010.2
20260505192009 82 155 3.0 16.0 0.00 0.00 0.00 36 1010.3
20260505191507 82 183 4.0 13.0 0.00 0.00 0.00 36 1010.3
20260505190507 82 134 4.0 20.0 0.00 0.00 0.00 39 1010.6
20260505190012 82 188 5.0 19.0 0.00 0.00 0.00 37 1010.7
20260505185509 82 190 5.0 19.0 0.00 0.00 0.00 38 1010.7
20260505185008 82 184 4.0 12.0 0.00 0.00 0.00 39 1010.8
20260505184508 82 103 4.0 12.0 0.00 0.00 0.00 39 1010.7
20260505184009 83 186 3.0 12.0 0.00 0.00 0.00 42 1010.7
20260505182509 82 51 3.0 10.0 0.00 0.00 0.00 41 1010.9
20260505182008 82 243 2.0 10.0 0.00 0.00 0.00 44 1011.1
20260505181508 82 223 3.0 12.0 0.00 0.00 0.00 45 1011.1
20260505181010 81 280 6.0 12.0 0.00 0.00 0.00 43 1011.0
20260505180508 81 169 3.0 12.0 0.00 0.00 0.00 44 1011.1
20260505180014 81 244 4.0 12.0 0.00 0.00 0.00 43 1011.2
20260505175509 81 146 4.0 11.0 0.00 0.00 0.00 45 1011.2
20260505175009 81 198 3.0 9.0 0.00 0.00 0.00 45 1011.1
20260505174508 81 245 3.0 11.0 0.00 0.00 0.00 46 1011.2
20260505173508 80 103 6.0 13.0 0.00 0.00 0.00 50 1011.3
20260505173009 81 169 4.0 9.0 0.00 0.00 0.00 47 1011.4